EW1948 Weather Reports


Display with metric or nautical units.
time (UTC)temp
F
wind
direction
speed
MPH
gust
MPH
rain 1hr
in
rain 24hr
in
rain mn
in
humidity
%
barometer
mb
20260505075516 69 158 4.0 14.0 0.00 0.31 0.00 63 1006.4
20260505074516 67 203 2.0 6.0 0.00 0.31 0.00 65 1006.9
20260505073516 67 338 1.0 3.0 0.00 0.31 0.00 64 1007.0
20260505072537 67 0 2.0 5.0 0.00 0.31 0.00 64 1006.8
20260505071516 68 338 3.0 7.0 0.00 0.31 0.00 66 1006.9
20260505070516 68 180 2.0 4.0 0.00 0.31 0.00 65 1006.0
20260505065516 68 180 3.0 7.0 0.00 0.31 0.00 64 1006.0
20260505064516 68 180 2.0 5.0 0.00 0.31 0.00 64 1006.2
20260505063516 69 203 1.0 3.0 0.00 0.31 0.00 63 1006.1
20260505062516 69 203 3.0 9.0 0.00 0.31 0.00 63 1006.0
20260505061516 69 158 3.0 9.0 0.00 0.31 0.00 63 1005.8
20260505060536 69 180 3.0 5.0 0.00 0.31 0.00 62 1005.7
20260505055516 69 180 3.0 8.0 0.00 0.31 0.00 62 1005.6
20260505054538 69 158 3.0 8.0 0.00 0.31 0.00 62 1005.4
20260505053516 69 158 3.0 9.0 0.00 0.31 0.00 61 1005.0
20260505052516 69 180 3.0 10.0 0.00 0.31 0.00 61 1004.9
20260505051516 70 180 3.0 11.0 0.00 0.31 0.00 61 1004.9
20260505050516 70 180 4.0 10.0 0.00 0.31 0.00 61 1004.8
20260505041517 70 180 5.0 11.0 0.00 0.31 0.31 59 1004.9
20260505040538 71 180 4.0 10.0 0.00 0.31 0.31 59 1005.1
20260505035516 71 203 4.0 9.0 0.00 0.31 0.31 58 1005.3
20260505034517 71 180 4.0 10.0 0.00 0.31 0.31 58 1005.4
20260505033516 71 180 3.0 10.0 0.00 0.31 0.31 58 1005.4
20260505032536 71 180 4.0 11.0 0.00 0.31 0.31 57 1005.4
20260505031518 71 180 3.0 7.0 0.00 0.31 0.31 58 1005.3
20260505030516 72 180 3.0 9.0 0.00 0.31 0.31 57 1005.2
20260505025618 72 225 3.0 8.0 0.00 0.31 0.31 57 1005.1
20260505024516 72 180 3.0 7.0 0.00 0.31 0.31 56 1004.9
20260505023517 72 180 3.0 8.0 0.00 0.31 0.31 56 1004.7
20260505022516 73 158 3.0 7.0 0.00 0.31 0.31 55 1004.5
20260505021516 73 180 2.0 5.0 0.00 0.31 0.31 54 1004.3
20260505020516 74 180 4.0 10.0 0.00 0.31 0.31 53 1004.1
20260505015536 74 180 4.0 10.0 0.00 0.31 0.31 53 1003.9
20260505014516 74 180 4.0 7.0 0.00 0.31 0.31 52 1003.9
20260505013516 74 158 3.0 6.0 0.00 0.31 0.31 52 1003.7
20260505012536 75 158 3.0 9.0 0.00 0.31 0.31 52 1003.7
20260505011516 75 180 3.0 7.0 0.00 0.31 0.31 52 1003.7
20260505010516 75 180 3.0 7.0 0.00 0.31 0.31 52 1003.5
20260505005517 75 158 3.0 8.0 0.00 0.31 0.31 51 1003.4
20260505004516 76 180 3.0 7.0 0.00 0.31 0.31 50 1003.2
20260505003516 76 180 3.0 6.0 0.00 0.31 0.31 50 1003.0
20260505002516 77 203 3.0 9.0 0.00 0.31 0.31 49 1003.0
20260505001516 77 248 3.0 7.0 0.00 0.31 0.31 49 1003.0
20260505000517 78 180 4.0 10.0 0.00 0.31 0.31 49 1002.9
20260504235536 78 203 3.0 8.0 0.00 0.31 0.31 48 1003.0
20260504234516 79 225 3.0 7.0 0.00 0.31 0.31 48 1002.9
20260504233516 79 203 6.0 14.0 0.00 0.31 0.31 46 1003.0
20260504232516 80 180 5.0 11.0 0.00 0.31 0.31 46 1003.2
20260504231518 80 180 4.0 10.0 0.00 0.31 0.31 47 1003.3
20260504230516 80 180 4.0 11.0 0.00 0.31 0.31 46 1003.4
20260504225516 80 180 4.0 8.0 0.00 0.31 0.31 47 1003.6
20260504224516 80 158 5.0 11.0 0.00 0.31 0.31 48 1003.7
20260504223516 79 180 6.0 12.0 0.00 0.31 0.31 49 1003.7
20260504222516 79 135 4.0 10.0 0.00 0.31 0.31 51 1003.8
20260504221516 79 225 3.0 10.0 0.00 0.31 0.31 54 1003.6
20260504220516 78 180 4.0 7.0 0.00 0.31 0.31 55 1003.7
20260504215516 78 180 4.0 6.0 0.00 0.31 0.31 54 1003.7
20260504214536 77 180 3.0 8.0 0.00 0.31 0.31 58 1003.7
20260504213516 76 225 3.0 9.0 0.00 0.31 0.31 63 1003.8
20260504212539 75 180 2.0 6.0 0.00 0.31 0.31 65 1003.8
20260504211516 74 180 2.0 6.0 0.00 0.31 0.31 67 1004.0
20260504210516 73 180 2.0 7.0 0.00 0.31 0.31 68 1004.2
20260504205516 73 225 3.0 7.0 0.00 0.31 0.31 67 1004.2
20260504204516 73 158 4.0 8.0 0.00 0.31 0.31 68 1004.4
20260504203516 71 113 3.0 10.0 0.01 0.31 0.31 72 1004.5
20260504202516 69 135 3.0 7.0 0.01 0.31 0.31 77 1004.4
20260504201516 67 158 4.0 8.0 0.03 0.31 0.31 80 1004.5
20260504200516 65 338 2.0 8.0 0.11 0.31 0.31 85 1004.8
20260504195516 65 270 2.0 5.0 0.26 0.31 0.31 85 1004.4
20260504194515 64 158 5.0 9.0 0.31 0.31 0.31 87 1004.6
20260504193516 63 180 3.0 8.0 0.30 0.30 0.30 87 1004.9
20260504192516 62 68 2.0 3.0 0.30 0.30 0.30 87 1004.8
20260504191516 63 68 2.0 4.0 0.28 0.28 0.28 86 1005.6
20260504190516 64 68 1.0 3.0 0.20 0.20 0.20 83 1006.6
20260504185636 67 0 2.0 4.0 0.05 0.05 0.05 76 1006.2
20260504184515 70 338 3.0 5.0 0.00 0.00 0.00 65 1006.2
20260504183515 72 113 1.0 3.0 0.00 0.00 0.00 59 1006.4
20260504182516 72 135 2.0 4.0 0.00 0.00 0.00 57 1006.5
20260504181515 72 135 2.0 8.0 0.00 0.00 0.00 58 1006.4
20260504180515 71 135 4.0 10.0 0.00 0.00 0.00 60 1005.9
20260504175518 70 158 2.0 9.0 0.00 0.00 0.00 62 1006.0
20260504174518 69 135 3.0 6.0 0.00 0.00 0.00 63 1006.2
20260504173517 68 158 3.0 7.0 0.00 0.00 0.00 63 1006.4
20260504172518 68 158 4.0 9.0 0.00 0.00 0.00 63 1006.3
20260504171518 67 135 4.0 9.0 0.00 0.00 0.00 64 1006.2
20260504170518 67 135 3.0 7.0 0.00 0.00 0.00 64 1006.9
20260504150517 69 180 3.0 5.0 0.00 0.00 0.00 60 1008.9
20260504140517 66 180 4.0 8.0 0.00 0.00 0.00 65 1008.5
20260504130517 63 135 3.0 6.0 0.00 0.00 0.00 73 1009.3
20260504110517 54 0.0 0.0 0.00 0.00 0.00 86 1009.5
20260504100517 55 0.0 0.0 0.00 0.00 0.00 83 1009.1
20260504081516 57 0.0 1.0 0.00 0.00 0.00 77 1009.2
20260504080516 58 0.0 2.0 0.00 0.00 0.00 76 1009.2